Regional Weather Roundup
Issued by NWS

Home | Current Version | Previous Version | Text Only | Print | Product List | Glossary On
Versions: 1 2 3 4 5 6 7 8 9 10 11 12 13 14 15 16 17 18 19 20 21 22 23 24 25 26 27 28 29 30 31 32 33 34 35 36 37 38 39 40 41 42 43 44 45 46 47 48 49 50
000
ASUS43 KLSX 271459
RWRMO

WEATHER SUMMARY FOR MISSOURI
NATIONAL WEATHER SERVICE SPRINGFIELD MO
900 AM CST SAT DEC 27 2014

NOTE: "FAIR" INDICATES FEW OR NO CLOUDS BELOW 12,000 FEET WITH NO
       SIGNIFICANT WEATHER AND/OR OBSTRUCTIONS TO VISIBILITY.
       CURRENT SKY AND/OR WEATHER CONDITIONS ARE NOT AVAILABLE FOR
       CHILLICOTHE AND FARMINGTON.

MOZ001>031-035>038-043-044-053-054-271600-
...NORTHERN AND WESTERN MISSOURI...

CITY           SKY/WX    TMP DP  RH WIND       PRES   REMARKS
KANSAS CTY INT CLOUDY    30  24  78 NW13      30.22S WCI  20
KANSAS C DTWN  CLOUDY    32  25  75 W8        30.22F WCI  25
LEE`S SUMMIT   CLOUDY    32  26  78 W6        30.21F WCI  26
ST JOSEPH      CLOUDY    28  23  81 NW14      30.27R WCI  17
CHILLICOTHE      N/A     34  27  75 NW10G17   30.19R WCI  26
KIRKSVILLE     CLOUDY    35  31  85 W15       30.19R WCI  25

$$
MOZ066>068-077>081-088>096-101>105-271600-
...SOUTHWEST MISSOURI...

CITY           SKY/WX    TMP DP  RH WIND       PRES   REMARKS
SPRINGFIELD    FLURRIES  35  32  88 NW8       30.20R WCI  29
JOPLIN         CLOUDY    32  31  96 NW8       30.24S WCI  25

$$
MOZ032>034-039>042-045>050-055>058-069>072-271600-
...CENTRAL MISSOURI...

CITY           SKY/WX    TMP DP  RH WIND       PRES   REMARKS
COLUMBIA       CLOUDY    38  31  76 W12G20    30.20R
JEFFERSON CITY CLOUDY    39  31  72 NW10G20   30.22R
ROLLA          CLOUDY    39  35  86 NW13G25   30.15S
SEDALIA        LGT SNOW  35  32  88 W9        30.21S FOG     WCI  28
OSAGE BEACH    CLOUDY    37  28  70 NW7       30.20S

$$
MOZ051-052-059>065-271600-
...EAST CENTRAL MISSOURI...

CITY           SKY/WX    TMP DP  RH WIND       PRES   REMARKS
ST LOUIS INTL  LGT RAIN  50  46  87 NW13G18   30.13R FOG
SPIRIT OF STL  CLOUDY    47  44  90 NW15      30.13R
ST CHARLES     CLOUDY    47  44  90 W15       30.13R

$$
MOZ072>076-082>087-097>100-106>115-271600-
...SOUTH CENTRAL AND SOUTHEAST MISSOURI...

CITY           SKY/WX    TMP DP  RH WIND       PRES   REMARKS
CAPE GIRARDEAU CLOUDY    48  48 100 S6        30.17R FOG
FARMINGTON     CLOUDY    48  46  93 S8        30.14R VSB 1/2
POPLAR BLUFF   CLOUDY    49  47  93 SE6       30.13S FOG
WEST PLAINS    CLOUDY    46  44  93 N13G20    30.15R FOG

$$


USA.gov is the U.S. government's official web portal to all federal, state and local government web resources and services.